Regional Weather Roundup
Issued by NWS Cleveland, OH

Home | Current Version | Previous Version | Graphics & Text | Print | Product List | Glossary On
Versions: 1 2 3 4 5 6 7 8 9 10 11 12 13 14 15 16 17 18 19 20 21 22 23 24 25 26 27 28 29 30 31 32 33 34 35 36 37 38 39 40 41 42 43 44 45 46 47 48 49 50
000
ASUS41 KCLE 310210
RWRCLE
OHIO REGIONAL WEATHER ROUNDUP
NATIONAL WEATHER SERVICE WILMINGTON, OH
900 PM EST FRI JAN 30 2015

NOTE: "FAIR" INDICATES FEW OR NO CLOUDS BELOW 12,000 FEET WITH NO
SIGNIFICANT WEATHER AND/OR OBSTRUCTIONS TO VISIBILITY.

OHZ001>008-015>018-024>027-034-035-043-044-310300-
   NORTHWEST OHIO

CITY           SKY/WX    TMP DP  RH WIND       PRES   REMARKS
DEFIANCE       CLEAR     18  10  71 CALM      30.44S
FINDLAY        CLEAR     14   7  73 S3        30.41F
TOLEDO EXPRESS CLEAR     13   7  77 CALM      30.43S
TOLEDO EXEC    CLEAR     16   7  67 CALM      30.44F
LIMA           CLEAR     19  10  68 CALM      30.41F
$$

OHZ009>014-019>023-028>033-038-089-310300-
   NORTHEAST OHIO

CITY           SKY/WX    TMP DP  RH WIND       PRES   REMARKS
CLE-HOPKINS    CLEAR     12   4  70 CALM      30.46S
CLE-LAKEFRONT  CLEAR     14   6  70 N5        30.44S WCI   6
CUY CO. ARPT   PTCLDY    12   9  85 N6        30.42S WCI   3
LORAIN-ELYRIA  CLEAR      7   3  84 CALM      30.43S
ASHTABULA      CLOUDY    14   6  70 NW12G20   30.39S WCI   0
AKRON-CANTON   PTCLDY     6   0  76 NW3       30.39S
WOOSTER        PTCLDY     2  -1  88 CALM      30.41S
MANSFIELD      PTCLDY     8   2  76 CALM      30.39F
YOUNGSTOWN     FLURRIES  13   6  74 NW9       30.37R WCI   1
$$

OHZ042-051>053-060>062-070>072-077>081-310300-
  SOUTHWEST OHIO

CITY           SKY/WX    TMP DP  RH WIND       PRES   REMARKS
CINC-COVINGTON CLEAR     21  14  74 CALM      30.44F
CINC-LUNKEN    CLEAR     22  16  78 CALM      30.48S
HAMILTON       CLEAR     18  15  88 CALM      30.47F
DAYTON         CLEAR     20  11  68 CALM      30.44S
WRIGHT-PAT AFB CLEAR     15  11  82 SW2       30.44S
DAYTON GENERAL FAIR      21  13  71 CALM      30.43S
WILMINGTON     CLEAR     20  11  68 CALM      30.43S
$$

OHZ036-037-039>041-045>050-054>059-063>069-073>076-082>088-310300-
  CENTRAL AND SOUTHEAST OHIO

CITY           SKY/WX    TMP DP  RH WIND       PRES   REMARKS
COLUMBUS       CLEAR     17   8  67 CALM      30.43F
OSU AIRPORT    CLEAR     16   8  71 CALM      30.43F
BOLTON FIELD   CLEAR     15  10  80 MISG      30.43F
RICKENBACK AFB CLEAR     19   9  66 CALM      30.44S
NEWARK         CLEAR     12   7  80 CALM      30.43S
MARION         CLEAR     10   5  80 CALM      30.42S
LANCASTER      CLEAR     13   8  81 CALM      30.44S
ZANESVILLE     CLEAR     13   5  70 CALM      30.43R
NEW PHILLY     PTCLDY    10   5  80 CALM      30.43S
$$


USA.gov is the U.S. government's official web portal to all federal, state and local government web resources and services.